Location: Fort Wayne
(41.1310°N, 85.1290°W)
Time: 19:07:02
(UTC-05:00)

IDEFIX/ARIANE 42P - Visible Passes

Search period start: 06 March 2015 00:00
Search period end: 16 March 2015 01:00
Orbit: 786 x 803 km, 98.3° (Epoch: 06 March)

Date Brightness Start Highest point End Pass type
(mag) Time Alt. Az. Time Alt. Az. Time Alt. Az.
06 Mar 3.4 18:56:50 10° SE 19:01:17 29° ENE 19:05:50 10° N visible
06 Mar 4.1 20:36:01 10° SSW 20:40:50 35° W 20:45:36 10° NNW visible
07 Mar 3.0 20:07:16 10° S 20:12:29 64° W 20:17:43 10° NNW visible
08 Mar 2.5 20:39:03 10° SSE 20:44:16 72° ENE 20:49:32 10° N visible
08 Mar 5.4 22:21:45 10° WSW 22:24:32 14° W 22:27:01 10° WNW visible
09 Mar 3.0 20:11:19 10° SE 20:16:09 40° ENE 20:21:03 10° N visible
09 Mar 4.7 21:51:35 10° SSW 21:55:56 25° W 22:00:12 10° NW visible
10 Mar 3.6 21:22:28 10° S 21:27:31 46° W 21:32:33 10° NNW visible
11 Mar 2.6 20:53:58 10° SSE 20:59:14 84° WSW 21:04:31 10° NNW visible
12 Mar 2.7 20:25:58 10° SSE 20:31:03 55° ENE 20:36:11 10° N visible
12 Mar 5.2 22:07:26 10° SW 22:11:05 18° W 22:14:34 10° NW visible
13 Mar 4.3 21:37:50 10° SSW 21:42:35 33° W 21:47:15 10° NNW visible
14 Mar 3.1 21:09:02 10° S 21:14:13 60° W 21:19:24 10° NNW visible
15 Mar 2.5 20:40:45 10° SSE 20:45:58 76° ENE 20:51:14 10° N visible
15 Mar 5.5 22:23:49 10° WSW 22:26:18 13° W 22:28:27 10° WNW visible
